Location: Newark
(40.5981°N, 124.1572°W)
Time: 05:43:55
(UTC+00:00)

ISS - Visible Passes

Search period start: 21 August 2019 00:00
Search period end: 31 August 2019 00:00
Orbit: 410 x 420 km, 51.6° (Epoch: 21 August)

Date Brightness Start Highest point End Pass type
(mag) Time Alt. Az. Time Alt. Az. Time Alt. Az.
24 Aug -0.9 12:56:39 10° SSE 12:58:11 13° SE 12:59:43 10° ESE visible
26 Aug -2.4 12:53:57 10° SSW 12:57:01 35° SE 13:00:06 10° ENE visible
27 Aug -1.6 12:06:46 15° SSE 12:08:21 20° SE 12:10:53 10° E visible
28 Aug -0.9 11:20:12 11° ESE 11:20:12 11° ESE 11:20:50 10° ESE visible
28 Aug -3.8 12:53:05 13° WSW 12:56:00 79° NW 12:59:22 10° NE visible
29 Aug -3.4 12:06:26 43° SSW 12:07:13 57° SE 12:10:30 10° ENE visible
30 Aug -1.6 11:19:41 24° E 11:19:41 24° E 11:21:29 10° ENE visible
30 Aug -2.6 12:52:34 13° W 12:55:10 33° NNW 12:58:14 10° NE visible
